Weather Roundup
Issued by NWS Springfield, MO

Home | Current Version | Previous Version | Text Only | Print | Product List | Glossary On
Versions: 1 2 3 4 5 6 7 8 9 10 11 12 13 14 15 16 17 18 19 20 21 22 23 24 25 26 27 28 29 30 31 32 33 34 35 36 37 38 39 40 41 42 43 44 45 46 47 48 49 50
000
NZUS99 KSGF 201907
HRRSGF

HOURLY WEATHER
NATIONAL WEATHER SERVICE SPRINGFIELD MO
100 PM CST MON FEB 20 2017

......SGF CWA......

CITY           SKY/WX    TMP DP  RH WIND       PRES   REMARKS
SPRINGFIELD    CLOUDY    68  60  75 S18       29.89S
JOPLIN         CLOUDY    66  57  72 S15       29.88F
WEST PLAINS    CLOUDY    71  57  61 S15G23    29.97F
ROLLA          LGT RAIN  74  52  46 S23G32    29.92F
OSAGE BEACH    CLOUDY    71  57  61 S20G28    29.87F
BRANSON        CLOUDY    68  59  73 S15G22    29.92F

......SURROUNDING SGF CWA......

CITY           SKY/WX    TMP DP  RH WIND       PRES   REMARKS
CHANUTE        CLOUDY    63  54  72 SW13      29.88S
PARSONS        CLOUDY    63  56  78 SW10      29.90R
COFFEYVILLE    CLOUDY    64  56  75 SW12      29.89F
EMPORIA        CLOUDY    60  54  80 S16       29.83F
GROVE OK       CLOUDY    64  57  77 S10       29.90F
ROGERS AR      CLOUDY    65  55  70 S20       29.90F
SILOAM SPRINGS CLOUDY    63  54  72 S16G25    29.89F
HARRISON AR    MOSUNNY   68  59  73 S22G29    29.94F
NEAR YELLVILLE CLOUDY    73  55  53 SW12G21   29.92F

......KANSAS AND MISSOURI......

CITY           SKY/WX    TMP DP  RH WIND       PRES   REMARKS
KANSAS CTY INT CLOUDY    65  59  81 S16       29.82F
DOWNTOWN KC    CLOUDY    67  59  75 SW12      29.82F
COLUMBIA       CLOUDY    71  51  49 S18G29    29.87F
SEDALIA        CLOUDY    69  58  67 S16G26    29.86F
ST JOSEPH      CLOUDY    63  59  87 S15       29.80F
ST LOUIS       PTSUNNY   78  53  41 S16G29    29.96F
SPIRIT OF STL  MOSUNNY   77  51  40 S20G37    29.93F
KIRKSVILLE     LGT RAIN  63  57  81 S13       29.83F
WICHITA        PTSUNNY   58  53  84 S13       29.83F
TOPEKA         CLOUDY    63  56  78 S12G21    29.81F
OLATHE         PTSUNNY   66  57  72 SW15G21   29.84F

......TENNESSEE......

CITY           SKY/WX    TMP DP  RH WIND       PRES   REMARKS
MEMPHIS        PTSUNNY   77  57  50 SW10      30.04F
NASHVILLE      CLOUDY    73  44  35 SE8       30.11F

......ARKANSAS.......

CITY           SKY/WX    TMP DP  RH WIND       PRES   REMARKS
FAYETTEVILLE   CLOUDY    66  58  75 S22       29.89F
FT SMITH       CLOUDY    67  57  70 S5        29.92F
LITTLE ROCK    CLOUDY    76  62  62 S20G25    29.97F

......OKLAHOMA.......

CITY           SKY/WX    TMP DP  RH WIND       PRES   REMARKS
TULSA          CLOUDY    64  56  75 S12       29.87F
PONCA CITY     CLOUDY    60  53  77 SW13      29.85F
MCALESTER      CLOUDY    63  55  75 S13G21    29.92F
OKLAHOMA CITY  CLOUDY    59  54  83 S13       29.88F

......IOWA............

CITY           SKY/WX    TMP DP  RH WIND       PRES   REMARKS
DES MOINES     LGT RAIN  60  57  89 S16       29.77F FOG
QUAD CITIES    CLOUDY    68  52  56 S14G26    29.89F

......ILLINOIS........

CITY           SKY/WX    TMP DP  RH WIND       PRES   REMARKS
QUINCY         CLOUDY    75  51  43 S20G28    29.89F
CHICAGO        CLOUDY    67  48  50 SE17      30.03F




USA.gov is the U.S. government's official web portal to all federal, state and local government web resources and services.